Location: Recife
(8.0585°S, 34.8848°W)
Time: 12:52:52
(UTC-03:00)

Vanguard 1 Rocket - Pass Details

Date: 23 April 2026
Orbit: 655 x 4212 km, 34.3° (Epoch: 12 May)

Event Time Altitude Azimuth Distance (km) Brightness Sun altitude
Rises 04:10:49 0° 311° (NW) 6,388 11.4 -18.0°
Reaches altitude 10° 04:15:53 10° 313° (NW) 4,787 10.7 -16.8°
Maximum altitude 04:27:30 67° 33° (NNE) 1,401 8.5 -14.0°
Drops below altitude 10° 04:33:36 10° 116° (ESE) 2,619 10.6 -12.5°
Sets 04:35:37 0° 119° (ESE) 3,363 11.2 -12.0°
